Weather in Pruszcz Gdanski

Poland     54°15′11″N   18°38′34″E
temp.,
°C
wind,
m/s
gust,
m/s
humid.,
%
clouds,
%
prec.,
mm/h
press.,
hPa
HPBL,
m
20 april, tue
tue2023:00+6nnw34787 0.0 101857
02:00+7nnw2373100 0.0 101750
05:00+7nnw2274100 0.0 101620
08:00+10nw227295 0.0 1016115
11:00+13nne216392 0.0 1015457
14:00+14ne44585 0.1 10141013
17:00+13ne44655 0.1 1014518
20:00+7n33852 0.1 101334
21 april, wed
wed2123:00+6n22862 0.0 101325
02:00+6nnw22840 0.0 101212
05:00+5wnw22770 0.0 101110
08:00+9wnw23705 0.0 1011205
11:00+14wnw34460 0.0 10101341
14:00+15nw4547100 0.0 10091988
17:00+14wnw475491 0.1 10081002
20:00+8wnw587482 0.2 1009252
22 april, thu
thu2223:00+7w5966100 0.1 1009845
02:00+4wsw510692 0.1 1009412
05:00+3wsw7147338 0.0 1008811
08:00+5wsw91467100 0.0 10081383
11:00+7w8135488 0.1 10092089
14:00+9wnw9143952 0.1 10102621
17:00+7wnw81154100 0.1 10111936
20:00+4w61156100 0.1 1013732
23 april, fri
fri2323:00+4w5115899 0.0 1012426
02:00+3w511689 0.0 1013339
05:00+3wnw6126555 0.0 1013523
08:00+5wnw71164100 0.2 10141674
11:00+7nw8104589 0.2 10152368
14:00+7nnw794899 0.6 10162110
17:00+7nw7943100 0.1 10182064
20:00+4w48476 0.1 1019164
24 april, sat
sat2423:00+3w714575 0.0 1018429
02:00+3w6136796 0.0 1018351
05:00+2w7147286 0.0 1018390
08:00+5wnw610645 0.0 1018871
11:00+8nw71240100 0.0 10172899
14:00+8nnw8133880 0.0 10172633
17:00+7nnw68395 0.0 10182211
20:00+3wnw33498 0.0 101825